Wind_Speed
87 87 87 87 88 88 89 89 89 87 86 85 84 83 83 82 82 81 81 82 82 82 82 82 81 80 80 79 79 79 78 78 77 77 77 77 78 77 76 76 76 77
93 93 93 93 93 93 93 93 93 93 92 91 90 89 88 87 87 86 86 85 85 85 85 85 85 85 84 84 84 83 83 83 83 82 82 82 82 81 81 81 81 81
98 99 99 99 99 98 98 97 97 97 97 96 95 94 93 92 91 91 92 91 89 89 88 88 89 88 88 87 87 87 87 87 88 88 88 87 87 86 86 87 87 87
104 103 104 104 104 104 104 103 102 102 101 101 100 99 98 97 96 95 96 96 95 94 94 93 92 92 91 91 90 90 90 91 91 92 92 92 92 92 92 92 92 92
114 112 111 110 109 109 109 109 108 107 107 106 105 104 103 102 101 100 100 100 100 99 99 99 98 97 96 96 95 94 94 95 95 96 97 97 97 97 97 97 97 97
122 121 120 118 117 116 115 114 113 112 112 111 110 109 108 107 106 105 104 104 104 103 103 103 103 103 102 102 101 100 99 99 100 101 101 102 102 102 102 102 102 102
128 127 126 125 124 123 122 120 119 118 117 116 115 114 113 111 110 109 109 108 107 107 107 107 107 107 107 107 106 105 104 104 104 105 105 106 106 107 107 107 107 107
131 131 130 129 128 128 127 126 125 124 123 122 121 120 119 117 115 114 113 112 112 111 111 111 111 111 111 111 110 109 108 108 108 108 109 109 109 110 110 110 110 110
134 133 133 132 131 131 130 130 129 128 127 126 125 125 124 123 121 120 119 118 117 116 115 116 116 116 116 116 115 114 113 112 112 112 112 112 112 113 114 114 113 112
135 135 135 134 133 133 132 132 132 131 131 130 129 129 128 127 126 125 124 123 122 121 120 120 120 120 120 120 119 119 118 118 118 117 116 116 116 116 117 117 117 116
132 134 135 135 135 134 134 133 133 133 133 133 133 132 132 131 130 129 129 128 127 127 125 125 124 124 124 123 123 123 123 123 123 122 121 120 119 120 120 121 120 120
127 129 131 133 133 133 133 133 134 134 134 135 136 135 135 135 134 134 133 133 132 131 130 129 128 128 127 126 126 126 126 127 127 127 126 125 124 123 123 123 124 124
122 124 126 128 129 130 131 132 132 133 133 134 135 136 136 136 136 136 136 136 135 135 134 133 133 132 131 130 130 129 129 129 130 130 130 129 128 128 127 126 127 127
119 120 121 122 124 125 126 128 129 130 131 132 132 133 134 134 135 135 135 135 135 135 135 134 133 133 134 134 134 134 133 133 133 133 133 134 134 134 134 132 131 130
118 118 119 119 120 121 122 123 125 126 127 128 129 130 131 131 131 132 132 132 133 133 134 134 133 132 132 133 133 133 133 133 133 134 135 136 137 137 137 136 134 133
120 119 118 118 118 119 119 120 121 122 124 125 126 127 128 129 129 129 129 130 131 131 132 133 132 132 132 131 131 130 129 129 129 130 131 132 132 132 132 132 131 131
121 121 120 120 119 119 118 118 118 119 121 122 123 124 125 126 126 127 127 128 128 129 130 131 131 131 132 131 131 130 129 128 127 126 126 126 125 125 125 126 127 127
119 121 121 121 121 120 119 118 118 118 119 120 120 121 121 122 123 124 125 125 125 126 127 127 127 128 129 130 129 129 128 127 126 125 124 123 122 122 122 122 123 125
116 118 119 120 121 121 121 120 119 118 118 118 119 119 119 120 120 121 122 122 122 123 123 123 122 123 124 124 124 124 124 124 124 123 123 122 122 121 121 121 122 123
112 114 116 118 119 121 122 122 121 120 118 117 117 117 118 118 118 119 119 119 119 120 120 120 120 119 120 120 119 119 119 120 120 120 120 120 120 120 120 121 121 122
110 111 113 114 116 118 120 121 122 122 121 120 118 116 116 116 117 117 116 116 116 117 117 117 118 118 118 118 117 116 116 117 117 117 118 118 118 119 120 120 121 122
108 109 111 112 114 115 117 119 120 122 123 123 121 119 117 116 115 115 115 115 115 115 115 115 116 117 118 117 117 116 115 115 115 115 116 117 117 118 119 120 121 122
107 108 109 110 112 114 115 116 118 119 121 122 123 122 121 119 117 115 114 114 115 115 114 114 115 117 118 117 117 117 115 114 114 114 114 115 116 117 119 120 121 122
108 109 109 110 111 112 113 114 116 117 119 120 122 122 122 122 121 119 116 115 115 115 115 114 114 115 117 118 118 117 116 114 114 114 114 114 115 116 118 119 120 121
107 108 109 110 111 112 112 113 114 115 117 118 119 120 121 121 122 121 120 119 118 117 116 116 115 116 117 118 118 118 117 116 114 113 113 114 114 115 117 118 118 120
106 106 107 109 110 111 112 113 113 114 115 116 117 118 119 119 120 120 121 120 120 119 117 117 117 118 119 120 120 120 119 118 116 114 114 114 115 115 115 116 117 118
Wind_Direction
270 270 269 268 269 269 271 272 272 272 271 270 270 269 268 267 266 266 266 266 266 266 266 266 266 266 265 265 264 264 264 264 265 265 266 266 267 267 267 267 267 268
272 271 270 269 269 268 268 269 270 270 270 270 270 269 269 268 268 267 266 266 265 265 265 265 266 266 265 265 265 265 265 265 265 265 265 265 266 266 267 267 267 267
270 270 270 270 270 270 269 268 269 269 269 269 269 269 269 268 268 268 268 268 266 264 263 263 263 264 264 265 265 265 265 265 265 265 265 264 265 265 266 266 267 267
268 268 267 267 268 268 269 269 268 268 268 268 268 268 268 268 267 266 267 267 267 266 265 264 263 263 263 263 263 263 264 264 265 265 265 264 264 264 264 265 266 266
271 269 268 266 265 265 265 266 266 266 266 266 266 266 266 266 266 265 265 265 265 266 266 266 265 265 264 263 262 262 262 262 263 263 264 264 264 264 264 265 265 266
271 271 270 269 268 266 265 265 264 264 264 264 264 264 264 264 264 264 264 264 264 264 264 264 265 265 265 265 265 264 264 263 263 263 263 263 264 264 264 265 265 266
270 270 269 269 269 268 267 266 265 265 264 264 264 263 263 263 263 262 262 262 263 263 263 263 263 263 264 264 265 265 265 265 265 265 264 264 264 265 265 265 266 266
269 268 268 268 267 267 267 266 266 265 265 264 264 264 263 263 262 262 261 261 261 261 262 262 262 262 262 263 263 263 264 264 265 265 265 265 265 266 266 266 267 267
268 267 267 266 266 266 266 265 265 265 265 265 264 264 264 264 263 262 262 261 261 260 260 261 261 261 261 262 262 262 262 262 263 263 264 264 265 265 266 266 267 267
266 266 265 265 265 265 265 265 265 265 265 264 264 264 264 264 263 263 263 262 261 260 260 260 260 260 260 260 261 261 261 261 262 262 262 263 263 264 264 265 265 265
264 264 264 264 264 263 263 263 264 264 264 264 264 264 264 263 263 263 263 263 262 261 261 260 259 259 259 259 259 260 260 260 261 261 262 262 262 262 262 263 263 263
262 262 263 263 263 263 262 262 262 262 262 263 263 263 263 263 263 263 263 262 262 261 261 261 260 260 260 259 259 259 259 260 260 261 261 261 262 262 262 262 262 262
262 261 261 261 261 262 262 262 262 261 261 261 262 262 262 263 263 263 263 263 262 262 261 260 260 260 260 260 259 259 259 259 260 260 261 261 261 262 262 262 262 261
263 262 261 260 260 260 260 261 261 261 261 261 261 261 261 262 262 262 263 263 263 263 262 261 260 260 259 259 259 259 259 259 259 260 260 260 261 262 262 262 262 261
264 263 262 261 261 260 259 259 259 260 260 260 260 260 260 260 261 261 261 262 262 263 263 263 262 261 261 260 260 260 259 259 259 259 260 260 260 261 261 262 261 261
265 264 263 262 262 261 260 260 259 259 260 260 260 260 260 260 260 260 260 260 260 261 262 263 263 264 263 263 262 262 261 261 260 260 260 260 260 261 261 261 261 260
264 264 264 263 263 262 261 261 260 260 260 260 260 260 260 260 260 260 259 259 259 259 259 260 261 262 263 263 264 264 263 263 262 262 261 261 261 261 261 261 261 260
263 263 264 264 264 263 263 261 261 260 260 260 260 259 259 260 260 260 260 260 259 259 259 258 258 259 259 260 261 262 262 263 263 262 262 262 262 261 261 261 261 261
260 261 262 263 263 264 264 263 262 261 260 260 260 260 259 259 259 259 259 260 260 260 260 259 259 258 258 258 259 259 260 260 261 261 261 262 262 262 261 261 261 261
259 259 260 261 261 262 262 263 263 263 262 261 260 260 259 259 259 259 259 259 259 259 260 260 260 259 259 258 258 258 258 258 259 259 260 260 261 261 261 261 261 261
258 258 258 259 259 260 260 261 261 262 262 262 262 261 260 259 259 259 259 259 259 259 259 260 260 260 259 259 258 258 257 257 257 257 258 258 259 260 260 260 261 261
258 257 257 257 257 258 258 259 260 260 261 261 262 261 261 260 260 259 259 259 259 259 259 259 260 260 260 259 259 258 257 257 256 256 256 256 257 258 258 259 260 260
260 258 257 257 257 257 257 257 258 258 259 260 260 261 261 261 261 260 259 259 258 259 259 259 259 260 260 260 259 259 258 257 256 256 255 255 255 256 256 257 258 259
261 260 259 258 257 257 256 256 256 257 257 258 259 260 260 261 261 261 260 259 258 258 258 258 258 258 259 260 260 260 259 258 257 256 256 256 255 255 255 256 257 258
261 260 260 259 258 258 257 257 256 256 256 257 257 258 259 259 260 261 261 261 260 259 259 258 258 258 257 258 259 259 259 259 258 257 257 256 256 255 255 256 256 256
263 261 260 259 258 258 257 257 257 256 256 256 256 256 257 257 257 258 259 260 261 261 260 259 258 258 258 258 258 258 258 258 258 258 258 257 257 256 256 256 256 256
Height
10586 10586 10586 10586 10586 10586 10585 10584 10584 10584 10583 10583 10583 10583 10583 10583 10583 10583 10583 10583 10583 10583 10583 10582 10583 10583 10583 10583 10583 10583 10583 10582 10582 10581 10581 10581 10580 10580 10580 10580 10580 10580
10569 10570 10570 10570 10571 10571 10572 10572 10571 10571 10570 10570 10570 10570 10570 10571 10571 10572 10572 10572 10572 10572 10571 10571 10571 10571 10571 10571 10572 10572 10572 10572 10571 10570 10570 10570 10569 10569 10569 10569 10569 10569
10554 10554 10554 10553 10553 10553 10554 10555 10555 10556 10556 10556 10556 10556 10557 10558 10559 10559 10559 10559 10560 10560 10559 10559 10558 10558 10559 10559 10559 10560 10561 10561 10560 10558 10558 10559 10558 10558 10557 10556 10557 10557
10542 10542 10541 10540 10539 10538 10538 10538 10538 10539 10540 10541 10541 10541 10542 10543 10544 10545 10545 10545 10545 10546 10546 10545 10546 10546 10546 10546 10547 10548 10549 10548 10547 10546 10546 10547 10546 10546 10545 10544 10545 10545
10524 10526 10526 10526 10526 10525 10525 10524 10523 10524 10524 10525 10525 10526 10527 10528 10528 10530 10530 10530 10531 10531 10531 10531 10531 10532 10532 10532 10533 10534 10535 10535 10534 10533 10533 10534 10533 10533 10533 10532 10533 10533
10504 10506 10508 10508 10508 10508 10509 10508 10508 10508 10508 10509 10509 10510 10510 10511 10512 10513 10514 10515 10515 10516 10516 10516 10516 10517 10516 10517 10518 10520 10521 10520 10520 10519 10519 10520 10519 10519 10519 10519 10520 10520
10484 10486 10487 10488 10489 10488 10489 10490 10490 10490 10490 10491 10492 10492 10493 10494 10495 10496 10497 10498 10499 10500 10500 10501 10501 10502 10501 10502 10503 10505 10505 10505 10505 10504 10505 10505 10505 10505 10505 10505 10506 10506
10464 10465 10466 10467 10468 10468 10468 10469 10470 10471 10472 10473 10473 10473 10474 10476 10477 10478 10479 10481 10483 10484 10484 10484 10485 10485 10485 10486 10488 10489 10490 10489 10489 10489 10489 10490 10491 10491 10491 10490 10491 10492
10441 10443 10444 10445 10446 10447 10447 10448 10449 10451 10452 10453 10454 10454 10455 10456 10457 10459 10460 10462 10464 10466 10467 10467 10468 10468 10468 10470 10471 10473 10474 10474 10474 10474 10475 10476 10476 10476 10476 10475 10477 10478
10418 10418 10420 10422 10424 10425 10426 10427 10428 10429 10430 10432 10433 10434 10435 10436 10438 10439 10440 10442 10444 10446 10447 10448 10449 10450 10451 10453 10454 10456 10457 10457 10457 10457 10459 10460 10461 10461 10461 10461 10462 10464
10399 10397 10397 10398 10400 10403 10404 10405 10407 10408 10408 10410 10411 10413 10414 10416 10418 10419 10420 10422 10424 10425 10427 10428 10430 10431 10433 10435 10437 10438 10439 10439 10440 10440 10442 10443 10445 10445 10445 10445 10446 10448
10380 10379 10378 10377 10377 10379 10381 10383 10385 10387 10388 10388 10388 10390 10393 10395 10397 10398 10399 10401 10403 10404 10406 10408 10409 10411 10413 10416 10418 10419 10420 10421 10421 10422 10423 10425 10427 10427 10428 10428 10430 10432
10359 10359 10359 10359 10358 10358 10359 10360 10362 10364 10366 10367 10368 10369 10371 10373 10375 10376 10378 10379 10380 10382 10385 10388 10390 10391 10393 10396 10397 10399 10400 10401 10402 10404 10405 10406 10408 10409 10410 10411 10413 10414
10336 10337 10338 10339 10340 10341 10342 10341 10341 10342 10343 10345 10347 10348 10350 10352 10353 10354 10356 10357 10358 10359 10361 10364 10369 10372 10373 10374 10376 10378 10380 10382 10383 10384 10385 10387 10389 10391 10392 10394 10396 10398
10315 10316 10317 10318 10319 10321 10323 10324 10324 10323 10323 10324 10325 10327 10329 10331 10333 10334 10336 10337 10338 10338 10339 10340 10344 10349 10351 10352 10354 10357 10360 10362 10363 10364 10366 10367 10370 10373 10373 10375 10379 10382
10294 10295 10297 10298 10298 10300 10302 10304 10305 10306 10306 10306 10306 10307 10308 10310 10312 10315 10317 10319 10320 10320 10320 10322 10324 10326 10327 10328 10331 10334 10337 10341 10343 10344 10346 10348 10351 10353 10355 10357 10361 10365
10274 10274 10275 10276 10278 10279 10282 10284 10285 10286 10287 10288 10288 10289 10289 10290 10291 10294 10297 10299 10301 10303 10304 10306 10308 10309 10308 10309 10311 10313 10315 10319 10321 10324 10326 10329 10332 10335 10337 10340 10342 10345
10258 10257 10257 10256 10257 10258 10260 10262 10265 10267 10268 10269 10270 10271 10272 10273 10273 10274 10276 10278 10280 10284 10286 10288 10292 10293 10292 10293 10295 10295 10297 10299 10301 10304 10307 10310 10314 10318 10320 10322 10323 10326
10244 10242 10241 10239 10238 10238 10237 10240 10243 10246 10248 10249 10251 10253 10254 10255 10256 10257 10258 10259 10261 10264 10266 10268 10272 10274 10273 10276 10278 10279 10280 10281 10282 10286 10289 10292 10296 10299 10302 10304 10305 10307
10226 10226 10225 10223 10222 10220 10219 10219 10220 10223 10226 10228 10230 10233 10235 10236 10237 10239 10241 10242 10243 10245 10247 10250 10252 10253 10253 10256 10260 10261 10263 10264 10266 10268 10272 10275 10278 10281 10283 10286 10288 10289
10207 10208 10208 10206 10205 10204 10203 10202 10201 10202 10203 10204 10208 10212 10214 10217 10219 10220 10223 10225 10226 10227 10230 10233 10234 10233 10233 10236 10240 10242 10243 10245 10249 10252 10255 10259 10262 10264 10266 10268 10270 10271
10188 10189 10189 10188 10187 10187 10186 10185 10184 10184 10184 10183 10186 10189 10192 10195 10199 10202 10204 10206 10208 10209 10211 10215 10216 10214 10214 10217 10219 10222 10224 10227 10231 10234 10238 10242 10246 10248 10249 10250 10251 10253
10167 10169 10170 10170 10169 10168 10169 10169 10168 10168 10166 10165 10165 10168 10171 10173 10176 10181 10185 10188 10190 10191 10193 10196 10199 10197 10195 10197 10199 10201 10205 10209 10213 10217 10220 10225 10229 10231 10232 10233 10235 10236
10148 10148 10149 10150 10150 10150 10150 10151 10152 10151 10151 10149 10148 10150 10153 10154 10154 10158 10163 10167 10170 10173 10175 10177 10182 10183 10179 10178 10180 10181 10184 10190 10195 10199 10203 10207 10211 10214 10215 10217 10221 10221
10128 10127 10128 10129 10130 10130 10131 10133 10134 10134 10134 10134 10133 10135 10137 10139 10138 10139 10142 10146 10149 10153 10156 10159 10163 10166 10164 10162 10164 10164 10165 10170 10175 10180 10186 10191 10193 10195 10197 10201 10205 10206
10105 10105 10106 10107 10108 10110 10111 10112 10114 10115 10116 10116 10117 10119 10121 10123 10124 10124 10126 10128 10129 10131 10136 10140 10144 10146 10146 10145 10147 10148 10149 10153 10157 10162 10169 10173 10174 10177 10181 10185 10189 10191